This is the latest recevied weather packets stored in our database for station/object K6LCM-13. If no packets are shown the sender has not sent any weather packets the latest 10 day(s).
| Time | Temp. | Humidity | Pressure | Rain* | Wind** | Luminosity | Snow |
|---|---|---|---|---|---|---|---|
| 1777979512 | 13.33° C | 77% | 1013.4 hPa | 0 mm | - | - | - |
| 1777978972 | 13.33° C | 76% | 1013.4 hPa | 0 mm | - | - | - |
| 1777978433 | 13.33° C | 76% | 1013.4 hPa | 0 mm | - | - | - |
| 1777977892 | 12.78° C | 76% | 1013.3 hPa | 0 mm | - | - | - |
| 1777977352 | 12.78° C | 76% | 1013.3 hPa | 0 mm | - | - | - |
| 1777976812 | 12.78° C | 76% | 1013.3 hPa | 0 mm | - | - | - |
| 1777976272 | 12.22° C | 78% | 1013.5 hPa | 0 mm | - | - | - |
| 1777975732 | 12.22° C | 80% | 1013.5 hPa | 0 mm | - | - | - |
| 1777975192 | 12.22° C | 82% | 1013.5 hPa | 0 mm | - | - | - |
| 1777974652 | 12.22° C | 82% | 1013.5 hPa | 0 mm | - | - | - |
| 1777974112 | 12.78° C | 81% | 1013.6 hPa | 0 mm | - | - | - |
| 1777972813 | 13.33° C | 75% | 1013.9 hPa | 0 mm | - | - | - |
| 1777972274 | 13.33° C | 74% | 1013.8 hPa | 0 mm | - | - | - |
| 1777971733 | 13.33° C | 74% | 1013.8 hPa | 0 mm | - | - | - |
| 1777971193 | 13.33° C | 74% | 1014 hPa | 0 mm | - | - | - |
| 1777970653 | 13.89° C | 78% | 1014 hPa | 0 mm | - | - | - |
| 1777970113 | 13.89° C | 79% | 1014.1 hPa | 0 mm | - | - | - |
| 1777969573 | 13.89° C | 81% | 1014.2 hPa | 0 mm | - | - | - |
| 1777969033 | 13.89° C | 81% | 1014.3 hPa | 0 mm | - | - | - |
| 1777968493 | 13.89° C | 85% | 1014.3 hPa | 0 mm | - | - | - |
| 1777967710 | 13.89° C | 87% | 1014.5 hPa | 0 mm | - | - | - |
| 1777967170 | 13.33° C | 87% | 1014.4 hPa | 0 mm | - | - | - |
| 1777966630 | 13.33° C | 87% | 1014.4 hPa | 0 mm | - | - | - |
| 1777965551 | 13.33° C | 86% | 1014.4 hPa | 0 mm | - | - | - |
| 1777965010 | 13.33° C | 85% | 1014.3 hPa | 0 mm | - | - | - |
* Rain latest hour (hover to see other rain measurements)
** Current wind speed in m/s (hover to see current wind gust speed)